TimeCST,TemperatureF,Dew PointF,Humidity,Sea Level PressureIn,VisibilityMPH,Wind Direction,Wind SpeedMPH,Gust SpeedMPH,PrecipitationIn,Events,Conditions,WindDirDegrees,DateUTC
12:53 AM,26.1,21.9,84,30.44,10.0,WSW,8.1,-,N/A,,Clear,240,2011-11-17 06:53:00
1:53 AM,26.6,23.0,86,30.39,10.0,Calm,Calm,-,N/A,,Clear,0,2011-11-17 07:53:00
2:53 AM,26.1,23.0,88,30.42,10.0,West,5.8,-,N/A,,Clear,260,2011-11-17 08:53:00
3:53 AM,26.1,23.0,88,30.41,10.0,WSW,13.8,-,N/A,,Clear,240,2011-11-17 09:53:00
4:53 AM,25.0,21.0,85,30.41,10.0,Calm,Calm,-,N/A,,Clear,0,2011-11-17 10:53:00
5:53 AM,24.1,19.9,84,30.40,10.0,Calm,Calm,-,N/A,,Clear,0,2011-11-17 11:53:00
6:53 AM,21.0,18.0,88,30.40,10.0,SSE,3.5,-,N/A,,Clear,150,2011-11-17 12:53:00
7:53 AM,24.1,21.0,88,30.40,10.0,South,8.1,-,N/A,,Clear,190,2011-11-17 13:53:00
8:53 AM,28.9,24.1,82,30.40,10.0,SSW,9.2,-,N/A,,Clear,210,2011-11-17 14:53:00
9:53 AM,35.1,28.9,78,30.38,10.0,South,10.4,-,N/A,,Clear,190,2011-11-17 15:53:00
10:53 AM,41.0,30.9,67,30.34,10.0,SSW,13.8,-,N/A,,Clear,200,2011-11-17 16:53:00
11:53 AM,45.0,28.0,52,30.29,10.0,SSW,21.9,27.6,N/A,,Clear,200,2011-11-17 17:53:00
12:53 PM,48.9,25.0,39,30.24,10.0,SSW,21.9,27.6,N/A,,Clear,200,2011-11-17 18:53:00
1:53 PM,50.0,23.0,35,30.20,10.0,South,24.2,31.1,N/A,,Clear,190,2011-11-17 19:53:00
2:53 PM,50.0,21.9,33,30.16,10.0,South,23.0,28.8,N/A,,Clear,190,2011-11-17 20:53:00
3:53 PM,48.9,23.0,36,30.13,10.0,South,16.1,24.2,N/A,,Clear,180,2011-11-17 21:53:00
4:53 PM,46.0,24.1,42,30.12,10.0,South,12.7,21.9,N/A,,Clear,180,2011-11-17 22:53:00
5:53 PM,42.1,26.1,53,30.11,10.0,South,12.7,-,N/A,,Clear,170,2011-11-17 23:53:00
6:53 PM,41.0,27.0,57,30.10,10.0,South,15.0,-,N/A,,Clear,170,2011-11-18 00:53:00
7:53 PM,41.0,25.0,53,30.07,10.0,South,16.1,-,N/A,,Clear,170,2011-11-18 01:53:00
8:53 PM,41.0,25.0,53,30.04,10.0,South,12.7,21.9,N/A,,Clear,180,2011-11-18 02:53:00
9:53 PM,41.0,25.0,53,30.01,10.0,South,17.3,28.8,N/A,,Clear,180,2011-11-18 03:53:00
10:53 PM,39.9,24.1,53,29.97,10.0,South,18.4,27.6,N/A,,Clear,180,2011-11-18 04:53:00
11:53 PM,39.9,26.1,58,29.93,10.0,South,25.3,35.7,N/A,,Clear,190,2011-11-18 05:53:00